Showing default

QIANFAN-27, 61560

Orbit data source: Space-Track

QIANFAN-27, 61560 is a Chinese payload satellite in LEO that was launched on Tue, 15 Oct 2024 UTC via a CHANG ZHENG 6A launch vehicle from the Taiyaun Space Center, China (TSC). Payload-class satellites include a variety of spacecraft equipped with specific instruments for various scientific and technological missions. These include communications satellites like Starlink; space stations such as the ISS; scientific satellites like the Hubble; Earth observation satellites from companies like Planet Labs, Umbra, and HawkEye 360; GPS; miniature CubeSats for education and research; and military/defense satellites.

Loading next visibility...
Identifier
61560, 2024-185J
Orbit
LEO
Last TLE update
6 hours ago
Origin
Manufacturer
GESIH/SECM
Mission
Operational Commercial Communications
Bus & Motor
QIANFAN, Unknown motor
Mass
267 kg wet, ~267 kg dry
Launch date (UTC)
2024-10-15 (9 months ago)
Launch vehicle
CHANG ZHENG 6A
Launch site
Taiyaun Space Center, China (TSC)
Object type
Payload
Rocket body
Debris
Shape & HBR
Box + 1 Pan, 10 m
Radar Cross Section
13.200 m², Large (>1 m²)

Expand to show TLE details & history

TLE from 6 hours ago
0 QIANFAN-27
1 61560U 24185J   25187.59359120  .00000335  00000-0  13147-3 0  9995
2 61560  88.9820  95.6137 0010829  89.9960 270.2475 14.27103548 47460
Epoch: 2025-07-06T14:14Z
TLE epoch observation values (Epoch: 2025-07-06T14:14:46.279Z)
Latitude
-0.00003°
Longitude
-42.89418°
Altitude
804.467 km
Speed
7.451 km/s
True Right ascension
06h 22m 27s
True Declination
0° 00' 00"
Sunlit
Object was in daylight at epoch
Visualization orbit readout
Latitude
-86.29029°
Longitude
152.89501°
Altitude
837.973 km
Speed
7.429 km/s
Apparent Right ascension
20h 26m 24s
Apparent Declination
-64° 34' 16"
Sunlit
Object is in daylight
Visualization observer readout
Local Sidereal Time
08:32:08
Azimuth
178.523° S
Elevation
-65.331°
Doppler factor
1
Orbital elements
Apogee altitude
806.141 km
Perigee altitude
790.599 km
Semi-major axis
7,176.507 km
Eccentricity
0.00108
Inclination
88.982°
RAAN
95.6137°
Arg. of periapsis
89.996°
True anomaly
Unknown
Mean anomaly
270.2475°
Eccentric anomaly
Unknown
Mean motion
3.57004 °/min
Orbital period
100.84 mins
BSTAR
0.00013147
Loading maneuver chart data...
Loading SW <> Apogee altitude chart data...
Loading historical data...
Loading historical data...
Loading historical data...
Loading historical data...
Loading historical data...
Loading historical data...
Loading historical data...

QIANFAN-27 Visibility forecast

Observer location: undefined°, undefined°

Span
Click to sort rows by Start time (UTC) header in descending order
Start Az.
Max El. time (UTC)
Max El. Az.
Max El.
End time (UTC)
End Az.
9 mins2025-07-07 05:58:19.381Z8.651° NNE2025-07-07 06:02:19.381Z64.784° ENE41.896°2025-07-07 06:07:19.381Z170.671° S
6 mins2025-07-07 17:19:19.381Z116.113° SE2025-07-07 17:21:19.381Z86.774° E22.212°2025-07-07 17:25:19.381Z30.611° NE
7 mins2025-07-07 18:59:19.381Z218.97° SW2025-07-07 19:02:19.381Z271.617° WNW30.989°2025-07-07 19:06:19.381Z336.562° NNW
|